Regional Weather Roundup
Issued by NWS

Home | Current Version | Previous Version | Text Only | Print | Product List | Glossary On
Versions: 1 2 3 4 5 6 7 8 9 10 11 12 13 14 15 16 17 18 19 20 21 22 23 24 25 26 27 28 29 30 31 32 33 34 35 36 37 38 39 40 41 42 43 44 45 46 47 48 49 50
361
ASUS44 KJAN 251510
RWRMS

MISSISSIPPI HOURLY WEATHER ROUNDUP
NATIONAL WEATHER SERVICE JACKSON MS
1000 AM CDT FRI JUL 25 2014

NOTE: "FAIR: INDICATES FEW OR NO CLOUDS BELOW 12,000 FEET WITH NO
SIGNIFICANT WEATHER AND/OR OBSTRUCTIONS TO VISIBILITY.

MSZ001>002-007>008-010>013-018>021-025>028-034>036-251600-
NORTHWEST MISSISSIPPI

CITY           SKY/WX    TMP DP  RH WIND       PRES   REMARKS
CLARKSDALE     FAIR      75  66  73 CALM      30.08S
CLEVELAND      FAIR      76  67  75 CALM      30.07S
GREENWOOD      SUNNY     78  65  63 NE5       30.07S
GREENVILLE     SUNNY     78  65  63 NE6       30.07R
GRENADA        FAIR      77  63  61 CALM      30.07F
OLIVE BRANCH   PTSUNNY   73  66  78 CALM      30.08
OXFORD         FAIR      73  63  68 NW3       30.09S
TUNICA         MOSUNNY   73  64  73 CALM      30.08S
$$

MSZ003>006-009-014>017-022>024-029>033-037>039-251600-
NORTHEAST MISSISSIPPI

CITY           SKY/WX    TMP DP  RH WIND       PRES   REMARKS
BELMONT        FAIR      76  68  74 CALM      30.06S
COLUMBUS AFB   SUNNY     77  66  69 N3        30.06S
CORINTH        FAIR      73  64  73 NW3       30.07R
GOLDN TRIANGLE SUNNY     79  64  61 CALM      30.07S
STARKVILLE     FAIR      77  66  69 CALM      30.06S
TUPELO         MOSUNNY   77  65  66 CALM      30.05F
$$

MSZ040-058-251600-
CENTRAL MISSISSIPPI

CITY           SKY/WX    TMP DP  RH WIND       PRES   REMARKS
JACKSON INTL   SUNNY     81  70  69 CALM      30.05S
JACKSON HAWKNS SUNNY     82  68  62 CALM      30.06R
MERIDIAN KEY   MOSUNNY   81  69  67 CALM      30.05S
MERIDIAN NAS   MOSUNNY   81  69  67 CALM      30.06R
RAYMOND        FAIR      82  77  83 NW3       30.06R HX  91
VICKSBURG      SUNNY     82  71  69 CALM      30.05S
$$

MSZ059>079-251600-
SOUTH MISSISSIPPI

CITY           SKY/WX    TMP DP  RH WIND       PRES   REMARKS
BROOKHAVEN     FAIR      82  75  78 CALM      30.07S
COLUMBIA       FAIR      82  75  78 VRB3      30.04S
HATTIESBURG    SUNNY     84  74  71 VRB3      30.05R HX  91
MCCOMB         MOSUNNY   83  74  74 VRB3      30.06R
NATCHEZ        SUNNY     82  75  78 SW5       30.06S
PINE BELT      MOSUNNY   82  73  74 N5        30.06S
$$

MSZ080>082-251600-
COASTAL MISSISSIPPI

CITY           SKY/WX    TMP DP  RH WIND       PRES   REMARKS
BAY ST LOUIS   MOSUNNY  N/A N/A N/A VRB5      30.05R
BILOXI         SUNNY     87  76  68 VRB3      30.04R HX  97
PASCAGOULA     SUNNY     87  76  69 VRB5      30.04R HX  97
GULFPORT       SUNNY     89  75  63 NW7       30.03R HX  99
$$



USA.gov is the U.S. government's official web portal to all federal, state and local government web resources and services.